Location: Unspecified
(56.5167°N, 0.0000°E)
Time: 13:16:40
(UTC+02:00)

CZ-3 Stage 3 - Visible Passes

Search period start: 17 October 2018 00:00
Search period end: 27 October 2018 00:00
Orbit: 370 x 34822 km, 30.4° (Epoch: 15 October)

Date Brightness Start Highest point End Pass type
(mag) Time Alt. Az. Time Alt. Az. Time Alt. Az.
17 Oct 8.4 18:02:13 10° SSW 22:07:38 52° SW 02:29:56 41° SW visible
18 Oct 8.4 14:39:55 10° SE 21:08:50 55° SE 23:01:19 37° SE visible
19 Oct 8.7 13:42:45 10° ENE 17:39:18 26° E 19:27:05 10° E visible
19 Oct 8.8 21:56:20 10° WSW 00:17:49 26° W 05:48:21 11° W visible
20 Oct 8.4 17:51:18 10° SSW 21:54:19 52° SW 02:19:49 40° SW visible
21 Oct 8.4 14:28:14 10° SE 20:55:33 55° SE 22:51:22 37° SE visible
22 Oct 8.7 13:29:36 10° ENE 17:27:06 26° E 19:15:57 10° E visible
22 Oct 8.8 21:44:29 10° WSW 00:06:17 26° W 05:38:35 11° W visible
23 Oct 8.5 17:40:24 10° SSW 21:41:00 53° SW 02:10:12 40° SW visible
24 Oct 8.4 14:16:37 10° SE 20:42:17 55° SE 22:41:54 36° SE visible
25 Oct 8.7 13:16:33 10° ENE 17:14:53 26° E 19:04:46 10° E visible
25 Oct 8.8 21:32:41 10° WSW 23:54:41 27° W 05:29:16 10° W visible
